Weather History for Mosinee, WI

Change the Weather History Date:

Monday, January 14, 2013

  Actual Average Record
Temperature  
Mean Temperature 8 °F -  
Max Temperature 15 °F 19 °F 30 °F (2001)
Min Temperature 1 °F 4 °F -14 °F (2005)
Degree Days  
Heating Degree Days 57    
Moisture  
Dew Point 4 °F    
Average Humidity 86    
Maximum Humidity 100    
Minimum Humidity 73    
Precipitation  
Precipitation 0.00 in - - ()
Sea Level Pressure  
Sea Level Pressure 30.28 in    
Wind  
Wind Speed 8 mph (West)    
Max Wind Speed 14 mph    
Max Gust Speed 21 mph    
Visibility 10 miles    
Events Snow    
Averages and records for this station are not official NWS values.
T = Trace of Precipitation, MM = Missing Value Source: NWS Daily Summary

Daily Weather History Graph

Daily Weather History Graph

Search for Another Location

Airport:

Trip Planner

Search our weather history database for the weather conditions in past years. The results will help you decide how hot, cold, wet, or windy it might be!

Date:

Astronomy

Jan. 14, 2013 Rise Set
Actual Time 7:33 AM CST 4:43 PM CST
Civil Twilight 7:00 AM CST 5:15 PM CST
Nautical Twilight 6:24 AM CST 5:52 PM CST
Astronomical Twilight 5:49 AM CST 6:27 PM CST
Moon 8:56 AM CST (1/14) 8:40 PM CST (1/14)
Length of Visible Light 10h 15m
Length of Day
9h 10m
Waxing Crescent, 11% of the Moon is Illuminated
Jan 14
Waxing Crescent
Jan 18
First Quarter
Jan 26
Full
Feb 3
Last Quarter
Feb 10
New

Hourly Weather History & Observations

Time (CST) Temp. Windchill Dew Point Humidity Pressure Visibility Wind Dir Wind Speed Gust Speed Precip Events Conditions
12:15 AM 5.0 °F -10.0 °F 1.4 °F 85% 30.14 in 10.0 mi West 10.4 mph - N/A   Clear
12:35 AM 5.0 °F -9.1 °F 1.4 °F 85% 30.14 in 10.0 mi West 9.2 mph - N/A   Clear
1:15 AM 5.0 °F -8.1 °F 1.4 °F 85% 30.16 in 10.0 mi West 8.1 mph - N/A   Clear
1:35 AM 5.0 °F -8.1 °F 1.4 °F 85% 30.16 in 10.0 mi West 8.1 mph - N/A   Clear
1:55 AM 3.2 °F -11.3 °F 1.4 °F 92% 30.18 in 10.0 mi West 9.2 mph - N/A   Clear
2:15 AM 3.2 °F -10.3 °F 1.4 °F 92% 30.20 in 10.0 mi West 8.1 mph - N/A   Clear
2:55 AM 3.2 °F -7.8 °F 1.4 °F 92% 30.21 in 10.0 mi West 5.8 mph - N/A   Clear
3:15 AM 3.2 °F -9.1 °F 1.4 °F 92% 30.21 in 10.0 mi West 6.9 mph - N/A   Clear
3:35 AM 3.2 °F -7.8 °F 1.4 °F 92% 30.21 in 10.0 mi West 5.8 mph - N/A   Clear
3:55 AM 3.2 °F -6.2 °F -0.4 °F 85% 30.22 in 10.0 mi WSW 4.6 mph - N/A   Clear
4:15 AM 3.2 °F -6.2 °F -0.4 °F 85% 30.23 in 10.0 mi WSW 4.6 mph - N/A   Clear
4:35 AM 3.2 °F -9.1 °F 1.4 °F 92% 30.23 in 10.0 mi WSW 6.9 mph - N/A   Clear
5:45 AM 1.4 °F -8.3 °F -0.4 °F 92% 30.25 in 10.0 mi WSW 4.6 mph - N/A   Clear
6:45 AM 1.4 °F -9.9 °F -0.4 °F 92% 30.28 in 10.0 mi SW 5.8 mph - N/A   Clear
7:45 AM 1.4 °F -9.9 °F -0.4 °F 92% 30.31 in 10.0 mi South 5.8 mph - N/A   Clear
8:45 AM 5.0 °F -8.1 °F 1.4 °F 85% 30.34 in 10.0 mi SW 8.1 mph - N/A   Clear
9:45 AM 6.8 °F -4.8 °F 3.2 °F 85% 30.33 in 10.0 mi WSW 6.9 mph - N/A   Clear
10:45 AM 10.4 °F -0.4 °F 6.8 °F 85% 30.33 in 10.0 mi SW 6.9 mph - N/A   Clear
11:45 AM 12.2 °F -0.2 °F 6.8 °F 79% 30.30 in 10.0 mi WSW 9.2 mph 17.3 mph N/A   Scattered Clouds
12:29 PM 14.0 °F 0.5 °F 8.6 °F 79% 30.31 in 7.0 mi WSW 11.5 mph - N/A Snow Light Snow
12:50 PM 14.0 °F -0.8 °F 8.6 °F 79% 30.31 in 7.0 mi WSW 13.8 mph 20.7 mph N/A Snow Light Snow
1:45 PM 14.0 °F 0.5 °F 8.6 °F 79% 30.31 in 3.0 mi West 11.5 mph - N/A Snow Light Snow
2:55 PM 15.8 °F 2.1 °F 8.6 °F 73% 30.31 in 10.0 mi WSW 12.7 mph 17.3 mph N/A   Overcast
3:50 PM 14.0 °F -0.2 °F 8.6 °F 79% 30.32 in 10.0 mi WSW 12.7 mph - N/A   Mostly Cloudy
4:50 PM 12.2 °F -1.8 °F 6.8 °F 79% 30.33 in 10.0 mi West 11.5 mph - N/A   Mostly Cloudy
5:50 PM 14.0 °F 3.9 °F 8.6 °F 79% 30.32 in 10.0 mi NNE 6.9 mph - N/A   Overcast
6:50 PM 14.0 °F 1.2 °F 8.6 °F 79% 30.33 in 10.0 mi West 10.4 mph - N/A Snow Light Snow
7:50 PM 12.2 °F 1.7 °F 8.6 °F 85% 30.32 in 10.0 mi West 6.9 mph - N/A   Overcast
8:50 PM 10.4 °F 2.2 °F 6.8 °F 85% 30.31 in 10.0 mi West 4.6 mph - N/A   Clear
9:15 PM 10.4 °F 0.8 °F 8.6 °F 92% 30.31 in 10.0 mi WNW 5.8 mph - N/A   Clear
9:35 PM 10.4 °F -0.4 °F 8.6 °F 92% 30.32 in 10.0 mi WNW 6.9 mph - N/A   Clear
9:45 PM 8.6 °F -4.7 °F 6.8 °F 92% 30.32 in 10.0 mi NW 9.2 mph - N/A   Clear
9:55 PM 10.4 °F -1.5 °F 6.8 °F 85% 30.32 in 10.0 mi NW 8.1 mph - N/A   Clear
10:15 PM 10.4 °F -0.4 °F 5.0 °F 79% 30.32 in 10.0 mi NW 6.9 mph - N/A   Clear
10:35 PM 8.6 °F 0.1 °F 5.0 °F 85% 30.32 in 10.0 mi WNW 4.6 mph - N/A   Clear
10:55 PM 8.6 °F 2.0 °F 5.0 °F 85% 30.31 in 10.0 mi West 3.5 mph - N/A   Clear
11:15 PM 6.8 °F - 5.0 °F 92% 30.31 in 10.0 mi Calm Calm - N/A   Clear
11:35 PM 5.0 °F - 3.2 °F 92% 30.32 in 10.0 mi Calm Calm - N/A   Clear
11:55 PM 5.0 °F - 5.0 °F 100% 30.33 in 10.0 mi Calm Calm - N/A   Clear